Savannah, GA

4:18 PM EDT on May 28, 2017 (GMT -0400)
Savannah International

Weather History for KSAV - July, 2013

Change the Weather History Date:

Saturday, July 6, 2013

  Actual Average Record
Temperature  
Mean Temperature 82 °F 82 °F  
Max Temperature 88 °F 92 °F 102 °F (1980)
Min Temperature 75 °F 72 °F 64 °F (1964)
Degree Days  
Heating Degree Days 0 0  
Month to date heating degree days 0 0  
Since 1 June heating degree days 0 0  
Since 1 July heating degree days 0 0  
Cooling Degree Days 17 17  
Month to date cooling degree days 96 102  
Year to date cooling degree days 922 951  
Since 1 June cooling degree days 564 548  
Growing Degree Days 32 (Base 50)    
Moisture  
Dew Point 73 °F    
Average Humidity 77    
Maximum Humidity 94    
Minimum Humidity 59    
Precipitation  
Precipitation 0.07 in 0.17 in 3.15 in (1987)
Month to date precipitation 1.83 1.00  
Year to date precipitation 29.65 23.21  
Sea Level Pressure  
Sea Level Pressure 30.16 in    
Wind  
Wind Speed 9 mph (SE)    
Max Wind Speed 26 mph    
Max Gust Speed 37 mph    
Visibility 9 miles    
Events Rain    
T = Trace of Precipitation, MM = Missing Value Source: NWS Daily Summary

Daily Weather History Graph

Daily Weather History Graph

Search for Another Location

Airport or City:

Trip Planner

Search our weather history database for the weather conditions in past years. The results will help you decide how hot, cold, wet, or windy it might be!

Date:

Astronomy

Jul. 06, 2013 Rise Set
Actual Time 6:24 AM EDT 8:34 PM EDT
Civil Twilight 5:56 AM EDT 9:02 PM EDT
Nautical Twilight 5:22 AM EDT 9:36 PM EDT
Astronomical Twilight 4:45 AM EDT 10:13 PM EDT
Moon 5:06 AM EDT (7/6) 7:18 PM EDT (7/6)
Length of Visible Light 15h 06m
Length of Day
14h 10m
Waning Crescent, 2% of the Moon is Illuminated
Jul 6
Waning Crescent
Jul 8
New
Jul 15
First Quarter
Jul 22
Full
Jul 29
Last Quarter

Hourly Weather History & Observations

Time (EDT) Temp. Heat Index Dew Point Humidity Pressure Visibility Wind Dir Wind Speed Gust Speed Precip Events Conditions
12:53 AM 78.1 °F - 73.0 °F 84% 30.19 in 10.0 mi ESE 6.9 mph - N/A   Clear
1:53 AM 78.1 °F - 73.0 °F 84% 30.18 in 10.0 mi SE 5.8 mph - N/A   Partly Cloudy
2:53 AM 77.0 °F - 73.0 °F 88% 30.17 in 10.0 mi ESE 5.8 mph - N/A   Mostly Cloudy
3:53 AM 77.0 °F - 72.0 °F 84% 30.16 in 10.0 mi ESE 4.6 mph - N/A   Clear
4:53 AM 75.9 °F - 72.0 °F 87% 30.15 in 10.0 mi ESE 3.5 mph - N/A   Partly Cloudy
5:53 AM 75.9 °F - 73.0 °F 91% 30.16 in 10.0 mi ESE 4.6 mph - N/A   Scattered Clouds
6:53 AM 75.9 °F - 73.0 °F 91% 30.17 in 10.0 mi Calm Calm - N/A   Mostly Cloudy
7:27 AM 78.8 °F - 73.4 °F 83% 30.18 in 3.0 mi SE 10.4 mph - 0.01 in Rain Rain
7:38 AM 75.2 °F - 71.6 °F 89% 30.18 in 5.0 mi SE 6.9 mph - 0.02 in Rain Light Rain
7:53 AM 77.0 °F - 73.0 °F 88% 30.18 in 10.0 mi ESE 5.8 mph - 0.02 in   Mostly Cloudy
8:53 AM 81.0 °F 86.7 °F 75.0 °F 82% 30.19 in 10.0 mi ESE 8.1 mph - N/A   Mostly Cloudy
9:53 AM 82.0 °F 88.6 °F 75.0 °F 79% 30.18 in 10.0 mi ESE 5.8 mph - N/A   Mostly Cloudy
10:53 AM 84.9 °F 91.4 °F 73.0 °F 67% 30.19 in 10.0 mi SE 11.5 mph - 0.00 in   Mostly Cloudy
11:53 AM 84.9 °F 90.7 °F 72.0 °F 65% 30.19 in 10.0 mi SE 15.0 mph - 0.00 in   Mostly Cloudy
12:53 PM 86.0 °F 91.5 °F 71.1 °F 61% 30.18 in 10.0 mi SE 13.8 mph 20.7 mph N/A   Mostly Cloudy
1:53 PM 88.0 °F 94.7 °F 72.0 °F 59% 30.16 in 10.0 mi SE 19.6 mph - 0.00 in   Mostly Cloudy
2:53 PM 87.1 °F 94.5 °F 73.0 °F 63% 30.15 in 10.0 mi ESE 18.4 mph 23.0 mph N/A   Mostly Cloudy
3:25 PM 78.8 °F - 73.4 °F 83% 30.16 in 2.5 mi ESE 12.7 mph 31.1 mph 0.03 in Rain Rain
3:33 PM 80.6 °F 86.2 °F 75.2 °F 84% 30.15 in 8.0 mi ESE 13.8 mph - 0.03 in   Mostly Cloudy
3:53 PM 82.9 °F 90.8 °F 75.9 °F 79% 30.14 in 8.0 mi SSE 16.1 mph 21.9 mph 0.03 in   Mostly Cloudy
4:29 PM 78.8 °F - 75.2 °F 89% 30.14 in 2.5 mi SSE 16.1 mph - 0.02 in Rain Light Rain
4:36 PM 80.6 °F 86.2 °F 75.2 °F 84% 30.14 in 5.0 mi SSE 13.8 mph - 0.02 in Rain Light Rain
4:53 PM 81.0 °F 86.7 °F 75.0 °F 82% 30.14 in 10.0 mi SSE 13.8 mph - 0.02 in   Mostly Cloudy
5:53 PM 82.0 °F 87.4 °F 73.0 °F 74% 30.13 in 10.0 mi SE 13.8 mph - N/A   Mostly Cloudy
6:53 PM 82.9 °F 88.8 °F 73.0 °F 72% 30.12 in 10.0 mi SSE 10.4 mph - N/A   Mostly Cloudy
7:53 PM 82.0 °F 86.7 °F 72.0 °F 71% 30.13 in 10.0 mi SSE 11.5 mph - N/A   Mostly Cloudy
8:53 PM 80.1 °F 84.2 °F 73.0 °F 79% 30.14 in 10.0 mi SE 8.1 mph - N/A   Scattered Clouds
9:53 PM 78.1 °F - 73.0 °F 84% 30.16 in 10.0 mi SE 6.9 mph - 0.00 in   Mostly Cloudy
10:53 PM 78.1 °F - 73.9 °F 87% 30.17 in 10.0 mi SE 8.1 mph - N/A   Mostly Cloudy
11:53 PM 77.0 °F - 73.0 °F 88% 30.17 in 10.0 mi SE 6.9 mph - N/A   Mostly Cloudy